Simultaneous Nadir Overpasses (SNOs) Predictions

Prediction of SNOs between AQUA and METOP-B Satellite Orbit:

Table of predicted SNOs for the next 14.0 days since TLE Epoch: 3/23/2018
Index Date (AQUA) Time (AQUA) Lat,Lon (AQUA) SZA (AQUA ) Date (METOP-B) Time (METOP-B) Lat,Lon (METOP-B) SZA (METOP-B ) Distance(km) Time Diff (sec)
1 03/24/2018 06:33:57 73.86, 75.85 72.48 03/24/2018 06:33:16 73.86, 75.78 72.49 2.40 41
2 03/24/2018 07:23:25 -73.96,-116.72 107.43 03/24/2018 07:23:56 -73.92,-116.73 107.47 3.56 31
3 03/27/2018 02:08:12 73.86, 142.30 71.37 03/27/2018 02:07:37 73.88, 142.23 71.39 2.76 35
4 03/27/2018 02:57:40 -73.95, -50.27 108.55 03/27/2018 02:58:17 -73.95, -50.27 108.56 0.42 37
5 03/29/2018 21:42:28 73.92,-151.39 70.32 03/29/2018 21:41:58 73.90,-151.32 70.31 3.18 30
6 03/29/2018 22:31:55 -73.96, 16.16 109.65 03/29/2018 22:32:38 -73.97, 16.20 109.64 2.21 43
7 04/01/2018 17:16:42 73.93, -84.97 69.24 04/01/2018 17:16:18 73.91, -84.87 69.23 3.63 24
8 04/01/2018 18:06:09 -73.97, 82.57 110.74 04/01/2018 18:06:59 -73.95, 82.54 110.76 2.55 50
9 04/04/2018 12:01:19 -73.36, 175.04 112.44 04/04/2018 12:00:11 -73.34, 172.88 112.37 68.64 68
10 04/04/2018 12:50:56 73.89, -18.46 68.11 04/04/2018 12:50:40 73.88, -18.54 68.11 2.81 16
11 04/04/2018 13:40:24 -73.99, 148.97 111.80 04/04/2018 13:41:20 -73.97, 149.00 111.83 2.06 56




NCC Satellite Simultaneous Nadir Overpasses (SNOs) Prediction Service
